| time (UTC) | temp F | wind direction | speed MPH | gust MPH | rain 1hr in | rain 24hr in | rain mn in | humidity % | barometer mb |
| 20260505070016 | 62 | 0.0 | 0.0 | 0.00 | 0.00 | 0.00 | 87 | 1013.1 | |
| 20260505063015 | 61 | 0.0 | 0.0 | 0.00 | 0.00 | 0.00 | 86 | 1013.5 | |
| 20260505060016 | 62 | 0.0 | 0.0 | 0.00 | 0.00 | 0.00 | 82 | 1014.1 | |
| 20260505053016 | 63 | 0.0 | 0.0 | 0.00 | 0.00 | 0.00 | 82 | 1014.1 | |
| 20260505040017 | 65 | 0.0 | 2.0 | 0.00 | 0.00 | 0.00 | 78 | 1014.3 | |
| 20260505033017 | 65 | 0.0 | 5.0 | 0.00 | 0.00 | 0.00 | 76 | 1014.3 | |
| 20260505030037 | 66 | 225 | 1.0 | 6.0 | 0.00 | 0.00 | 0.00 | 75 | 1014.1 |
| 20260505023017 | 66 | 225 | 1.0 | 4.0 | 0.00 | 0.00 | 0.00 | 73 | 1014.1 |
| 20260505020017 | 67 | 225 | 1.0 | 7.0 | 0.00 | 0.00 | 0.00 | 70 | 1014.0 |
| 20260505013017 | 68 | 0.0 | 4.0 | 0.00 | 0.00 | 0.00 | 66 | 1013.5 | |
| 20260505010016 | 70 | 0.0 | 5.0 | 0.00 | 0.00 | 0.00 | 62 | 1013.6 | |
| 20260505003037 | 71 | 225 | 1.0 | 8.0 | 0.00 | 0.00 | 0.00 | 59 | 1013.9 |
| 20260505000016 | 73 | 225 | 1.0 | 7.0 | 0.00 | 0.00 | 0.00 | 53 | 1014.1 |
| 20260504233057 | 75 | 225 | 1.0 | 7.0 | 0.00 | 0.00 | 0.00 | 47 | 1014.1 |
| 20260504230016 | 77 | 203 | 3.0 | 9.0 | 0.00 | 0.00 | 0.00 | 44 | 1014.3 |
| 20260504223016 | 78 | 225 | 3.0 | 10.0 | 0.00 | 0.00 | 0.00 | 41 | 1014.5 |
| 20260504220016 | 78 | 248 | 3.0 | 12.0 | 0.00 | 0.00 | 0.00 | 41 | 1014.8 |
| 20260504213036 | 79 | 248 | 2.0 | 9.0 | 0.00 | 0.00 | 0.00 | 43 | 1014.7 |
| 20260504210036 | 79 | 248 | 3.0 | 12.0 | 0.00 | 0.00 | 0.00 | 44 | 1015.1 |
| 20260504203016 | 79 | 248 | 3.0 | 19.0 | 0.00 | 0.00 | 0.00 | 47 | 1015.4 |
| 20260504200016 | 79 | 248 | 2.0 | 11.0 | 0.00 | 0.00 | 0.00 | 47 | 1015.9 |
| 20260504193017 | 78 | 225 | 4.0 | 13.0 | 0.00 | 0.00 | 0.00 | 46 | 1016.5 |
| 20260504190016 | 78 | 225 | 3.0 | 9.0 | 0.00 | 0.00 | 0.00 | 47 | 1016.7 |
| 20260504183016 | 77 | 225 | 3.0 | 10.0 | 0.00 | 0.00 | 0.00 | 48 | 1017.0 |
| 20260504180016 | 77 | 203 | 3.0 | 10.0 | 0.00 | 0.00 | 0.00 | 46 | 1017.6 |
| 20260504173015 | 77 | 203 | 3.0 | 12.0 | 0.00 | 0.00 | 0.00 | 43 | 1017.7 |